| time (UTC) | temp F | wind direction | speed MPH | gust MPH | rain 1hr in | rain 24hr in | rain mn in | humidity % | barometer mb |
| 20260510041548 | 54 | 337 | 0.0 | 4.0 | 0.00 | 0.00 | 0.00 | 1 | 1016.8 |
| 20260510041048 | 54 | 12 | 0.0 | 4.0 | 0.00 | 0.00 | 0.00 | 1 | 1016.7 |
| 20260510040546 | 54 | 309 | 0.0 | 2.0 | 0.00 | 0.00 | 0.00 | 1 | 1016.6 |
| 20260510040038 | 54 | 98 | 0.0 | 4.0 | 0.00 | 0.00 | 0.00 | 1 | 1016.5 |
| 20260510035524 | 55 | 150 | 0.0 | 4.0 | 0.00 | 0.00 | 0.00 | 1 | 1016.6 |
| 20260510035023 | 55 | 288 | 0.0 | 4.0 | 0.00 | 0.00 | 0.00 | 1 | 1016.5 |
| 20260510034521 | 55 | 238 | 0.0 | 2.0 | 0.00 | 0.00 | 0.00 | 1 | 1016.5 |
| 20260510034021 | 55 | 37 | 0.0 | 2.0 | 0.00 | 0.00 | 0.00 | 1 | 1016.5 |
| 20260510033518 | 55 | 290 | 0.0 | 3.0 | 0.00 | 0.00 | 0.00 | 1 | 1016.5 |
| 20260510033113 | 55 | 305 | 0.0 | 4.0 | 0.00 | 0.00 | 0.00 | 1 | 1016.6 |
| 20260510032602 | 56 | 187 | 0.0 | 4.0 | 0.00 | 0.00 | 0.00 | 1 | 1016.5 |
| 20260510032057 | 56 | 239 | 0.0 | 2.0 | 0.00 | 0.00 | 0.00 | 1 | 1016.6 |
| 20260510031556 | 56 | 228 | 0.0 | 2.0 | 0.00 | 0.00 | 0.00 | 1 | 1016.5 |
| 20260510031054 | 56 | 238 | 0.0 | 7.0 | 0.00 | 0.00 | 0.00 | 1 | 1016.5 |
| 20260510030552 | 57 | 255 | 1.0 | 7.0 | 0.00 | 0.00 | 0.00 | 1 | 1016.6 |
| 20260510030043 | 57 | 314 | 0.0 | 5.0 | 0.00 | 0.00 | 0.00 | 1 | 1016.5 |
| 20260510025533 | 57 | 259 | 0.0 | 3.0 | 0.00 | 0.00 | 0.00 | 1 | 1016.5 |
| 20260510025035 | 57 | 240 | 0.0 | 3.0 | 0.00 | 0.00 | 0.00 | 1 | 1016.4 |
| 20260510024532 | 57 | 294 | 0.0 | 3.0 | 0.00 | 0.00 | 0.00 | 1 | 1016.4 |
| 20260510024028 | 58 | 56 | 0.0 | 3.0 | 0.00 | 0.00 | 0.00 | 1 | 1016.3 |
| 20260510023527 | 58 | 58 | 0.0 | 5.0 | 0.00 | 0.00 | 0.00 | 1 | 1016.3 |
| 20260510023008 | 58 | 292 | 0.0 | 1.0 | 0.00 | 0.00 | 0.00 | 1 | 1016.3 |
| 20260510022506 | 58 | 248 | 0.0 | 3.0 | 0.00 | 0.00 | 0.00 | 1 | 1016.3 |
| 20260510022005 | 58 | 322 | 0.0 | 2.0 | 0.00 | 0.00 | 0.00 | 1 | 1016.3 |
| 20260510021503 | 58 | 257 | 0.0 | 3.0 | 0.00 | 0.00 | 0.00 | 1 | 1016.3 |
| 20260510021001 | 58 | 297 | 0.0 | 3.0 | 0.00 | 0.00 | 0.00 | 1 | 1016.3 |
| 20260510020600 | 58 | 333 | 0.0 | 3.0 | 0.00 | 0.00 | 0.00 | 1 | 1016.3 |
| 20260510020501 | 59 | 316 | 0.0 | 3.0 | 0.00 | 0.00 | 0.00 | 1 | 1016.4 |
| 20260510020041 | 59 | 94 | 0.0 | 3.0 | 0.00 | 0.00 | 0.00 | 1 | 1016.5 |
| 20260510015541 | 59 | 4 | 0.0 | 3.0 | 0.00 | 0.00 | 0.00 | 1 | 1016.4 |
| 20260510015038 | 59 | 269 | 0.0 | 1.0 | 0.00 | 0.00 | 0.00 | 1 | 1016.5 |
| 20260510014540 | 59 | 84 | 0.0 | 2.0 | 0.00 | 0.00 | 0.00 | 1 | 1016.6 |
| 20260510014038 | 60 | 271 | 0.0 | 3.0 | 0.00 | 0.00 | 0.00 | 1 | 1016.6 |
| 20260510013534 | 60 | 293 | 0.0 | 2.0 | 0.00 | 0.00 | 0.00 | 1 | 1016.6 |
| 20260510013016 | 60 | 276 | 0.0 | 1.0 | 0.00 | 0.00 | 0.00 | 1 | 1016.7 |
| 20260510012516 | 60 | 236 | 0.0 | 2.0 | 0.00 | 0.00 | 0.00 | 1 | 1016.8 |
| 20260510012012 | 60 | 281 | 0.0 | 3.0 | 0.00 | 0.00 | 0.00 | 1 | 1016.8 |
| 20260510011515 | 60 | 342 | 0.0 | 4.0 | 0.00 | 0.00 | 0.00 | 1 | 1016.8 |
| 20260510011010 | 60 | 35 | 0.0 | 4.0 | 0.00 | 0.00 | 0.00 | 1 | 1016.9 |
| 20260510010507 | 60 | 295 | 0.0 | 4.0 | 0.00 | 0.00 | 0.00 | 1 | 1017.0 |
| 20260510010049 | 61 | 38 | 1.0 | 4.0 | 0.00 | 0.00 | 0.00 | 1 | 1017.1 |
| 20260510005547 | 61 | 293 | 0.0 | 3.0 | 0.00 | 0.00 | 0.00 | 1 | 1017.2 |
| 20260510005046 | 61 | 263 | 0.0 | 5.0 | 0.00 | 0.00 | 0.00 | 1 | 1017.1 |
| 20260510004544 | 61 | 59 | 0.0 | 6.0 | 0.00 | 0.00 | 0.00 | 1 | 1017.2 |
| 20260510004042 | 61 | 84 | 0.0 | 6.0 | 0.00 | 0.00 | 0.00 | 1 | 1017.3 |
| 20260510003542 | 62 | 103 | 0.0 | 4.0 | 0.00 | 0.00 | 0.00 | 1 | 1017.3 |
| 20260510003025 | 62 | 60 | 0.0 | 3.0 | 0.00 | 0.00 | 0.00 | 1 | 1017.3 |
| 20260510002524 | 62 | 311 | 0.0 | 6.0 | 0.00 | 0.00 | 0.00 | 1 | 1017.2 |
| 20260510002025 | 62 | 221 | 0.0 | 6.0 | 0.00 | 0.00 | 0.00 | 1 | 1017.3 |
| 20260510001521 | 63 | 262 | 0.0 | 3.0 | 0.00 | 0.00 | 0.00 | 1 | 1017.4 |
| 20260510001020 | 63 | 277 | 0.0 | 3.0 | 0.00 | 0.00 | 0.00 | 1 | 1017.5 |
| 20260510000518 | 63 | 315 | 0.0 | 5.0 | 0.00 | 0.00 | 0.00 | 1 | 1017.4 |
| 20260510000019 | 63 | 309 | 0.0 | 5.0 | 0.00 | 0.00 | 0.00 | 1 | 1017.5 |
| 20260509235514 | 63 | 35 | 1.0 | 5.0 | 0.00 | 0.00 | 0.00 | 1 | 1017.4 |
| 20260509235015 | 63 | 53 | 1.0 | 5.0 | 0.00 | 0.00 | 0.00 | 1 | 1017.5 |
| 20260509234519 | 63 | 312 | 0.0 | 2.0 | 0.00 | 0.00 | 0.00 | 1 | 1017.5 |
| 20260509234014 | 63 | 295 | 0.0 | 3.0 | 0.00 | 0.00 | 0.00 | 1 | 1017.5 |
| 20260509233509 | 63 | 72 | 1.0 | 3.0 | 0.00 | 0.00 | 0.00 | 1 | 1017.6 |
| 20260509233009 | 63 | 67 | 0.0 | 4.0 | 0.00 | 0.00 | 0.00 | 1 | 1017.7 |
| 20260509232506 | 63 | 323 | 0.0 | 5.0 | 0.00 | 0.00 | 0.00 | 1 | 1018.0 |
| 20260509232005 | 63 | 56 | 0.0 | 5.0 | 0.00 | 0.00 | 0.00 | 1 | 1018.1 |
| 20260509231504 | 64 | 290 | 0.0 | 3.0 | 0.00 | 0.00 | 0.00 | 1 | 1018.1 |
| 20260509231002 | 64 | 297 | 0.0 | 2.0 | 0.00 | 0.00 | 0.00 | 1 | 1018.2 |
| 20260509230604 | 63 | 270 | 0.0 | 4.0 | 0.00 | 0.00 | 0.00 | 1 | 1018.3 |
| 20260509225600 | 64 | 84 | 0.0 | 3.0 | 0.00 | 0.00 | 0.00 | 1 | 1018.4 |
| 20260509225057 | 64 | 281 | 1.0 | 4.0 | 0.00 | 0.00 | 0.00 | 1 | 1018.6 |
| 20260509224556 | 64 | 339 | 0.0 | 4.0 | 0.00 | 0.00 | 0.00 | 1 | 1018.7 |
| 20260509224054 | 64 | 307 | 1.0 | 4.0 | 0.00 | 0.00 | 0.00 | 1 | 1018.6 |
| 20260509223553 | 64 | 259 | 0.0 | 3.0 | 0.00 | 0.00 | 0.00 | 1 | 1018.7 |
| 20260509223057 | 64 | 238 | 0.0 | 3.0 | 0.00 | 0.00 | 0.00 | 1 | 1018.7 |
| 20260509222549 | 64 | 44 | 0.0 | 4.0 | 0.00 | 0.00 | 0.00 | 1 | 1018.7 |
| 20260509222048 | 64 | 215 | 0.0 | 4.0 | 0.00 | 0.00 | 0.00 | 1 | 1018.8 |
| 20260509221548 | 63 | 264 | 1.0 | 4.0 | 0.00 | 0.00 | 0.00 | 1 | 1018.9 |
| 20260509221045 | 63 | 291 | 1.0 | 3.0 | 0.00 | 0.00 | 0.00 | 2 | 1018.8 |
| 20260509220546 | 64 | 208 | 0.0 | 4.0 | 0.00 | 0.00 | 0.00 | 1 | 1018.9 |
| 20260509220044 | 64 | 229 | 0.0 | 4.0 | 0.00 | 0.00 | 0.00 | 1 | 1019.0 |
| 20260509215542 | 65 | 250 | 0.0 | 3.0 | 0.00 | 0.00 | 0.00 | 1 | 1019.1 |
| 20260509215042 | 65 | 273 | 0.0 | 5.0 | 0.00 | 0.00 | 0.00 | 1 | 1019.0 |
| 20260509214539 | 64 | 222 | 0.0 | 5.0 | 0.00 | 0.00 | 0.00 | 3 | 1018.9 |
| 20260509214039 | 64 | 108 | 1.0 | 5.0 | 0.00 | 0.00 | 0.00 | 13 | 1019.0 |
| 20260509213536 | 64 | 101 | 0.0 | 5.0 | 0.00 | 0.00 | 0.00 | 11 | 1019.1 |
| 20260509213035 | 65 | 307 | 1.0 | 5.0 | 0.00 | 0.00 | 0.00 | 9 | 1019.2 |
| 20260509212536 | 66 | 185 | 0.0 | 2.0 | 0.00 | 0.00 | 0.00 | 1 | 1019.3 |
| 20260509212034 | 65 | 257 | 0.0 | 4.0 | 0.00 | 0.00 | 0.00 | 1 | 1019.4 |
| 20260509211529 | 65 | 245 | 1.0 | 4.0 | 0.00 | 0.00 | 0.00 | 6 | 1019.3 |
| 20260509211028 | 65 | 229 | 0.0 | 3.0 | 0.00 | 0.00 | 0.00 | 14 | 1019.2 |
| 20260509210527 | 66 | 278 | 0.0 | 2.0 | 0.00 | 0.00 | 0.00 | 1 | 1019.3 |
| 20260509210015 | 65 | 61 | 0.0 | 3.0 | 0.00 | 0.00 | 0.00 | 4 | 1019.3 |
| 20260509205505 | 65 | 228 | 0.0 | 5.0 | 0.00 | 0.00 | 0.00 | 1 | 1019.4 |
| 20260509205005 | 65 | 236 | 1.0 | 5.0 | 0.00 | 0.00 | 0.00 | 4 | 1019.5 |
| 20260509204502 | 64 | 217 | 2.0 | 4.0 | 0.00 | 0.00 | 0.00 | 6 | 1019.5 |
| 20260509204001 | 65 | 84 | 0.0 | 3.0 | 0.00 | 0.00 | 0.00 | 6 | 1019.5 |
| 20260509203559 | 66 | 336 | 0.0 | 3.0 | 0.00 | 0.00 | 0.00 | 1 | 1019.6 |
| 20260509203111 | 65 | 262 | 0.0 | 3.0 | 0.00 | 0.00 | 0.00 | 1 | 1019.6 |
| 20260509202539 | 64 | 243 | 1.0 | 6.0 | 0.00 | 0.00 | 0.00 | 9 | 1019.7 |
| 20260509202041 | 65 | 271 | 1.0 | 6.0 | 0.00 | 0.00 | 0.00 | 1 | 1019.8 |
| 20260509201537 | 65 | 244 | 1.0 | 5.0 | 0.00 | 0.00 | 0.00 | 1 | 1020.1 |
| 20260509201034 | 65 | 198 | 1.0 | 5.0 | 0.00 | 0.00 | 0.00 | 2 | 1020.0 |
| 20260509200535 | 66 | 338 | 0.0 | 2.0 | 0.00 | 0.00 | 0.00 | 1 | 1020.1 |
| 20260509200031 | 65 | 235 | 0.0 | 3.0 | 0.00 | 0.00 | 0.00 | 1 | 1020.1 |
| 20260509195516 | 65 | 228 | 1.0 | 3.0 | 0.00 | 0.00 | 0.00 | 1 | 1020.0 |
| 20260509195011 | 65 | 283 | 0.0 | 5.0 | 0.00 | 0.00 | 0.00 | 1 | 1020.0 |
| 20260509194511 | 64 | 219 | 1.0 | 5.0 | 0.00 | 0.00 | 0.00 | 1 | 1020.0 |
| 20260509194009 | 64 | 72 | 1.0 | 3.0 | 0.00 | 0.00 | 0.00 | 1 | 1020.1 |
| 20260509193508 | 64 | 70 | 0.0 | 4.0 | 0.00 | 0.00 | 0.00 | 1 | 1020.1 |
| 20260509193005 | 64 | 235 | 0.0 | 2.0 | 0.00 | 0.00 | 0.00 | 1 | 1020.1 |
| 20260509192548 | 64 | 8 | 0.0 | 2.0 | 0.00 | 0.00 | 0.00 | 1 | 1020.2 |
| 20260509192045 | 63 | 19 | 0.0 | 3.0 | 0.00 | 0.00 | 0.00 | 1 | 1020.2 |
| 20260509191542 | 63 | 245 | 0.0 | 4.0 | 0.00 | 0.00 | 0.00 | 1 | 1020.3 |
| 20260509191042 | 64 | 228 | 3.0 | 4.0 | 0.00 | 0.00 | 0.00 | 1 | 1020.4 |
| 20260509190543 | 64 | 68 | 1.0 | 3.0 | 0.00 | 0.00 | 0.00 | 1 | 1020.4 |
| 20260509190038 | 64 | 247 | 1.0 | 3.0 | 0.00 | 0.00 | 0.00 | 1 | 1020.5 |
| 20260509185518 | 64 | 225 | 0.0 | 4.0 | 0.00 | 0.00 | 0.00 | 1 | 1020.4 |
| 20260509185016 | 64 | 236 | 1.0 | 4.0 | 0.00 | 0.00 | 0.00 | 2 | 1020.4 |
| 20260509184515 | 65 | 67 | 0.0 | 1.0 | 0.00 | 0.00 | 0.00 | 1 | 1020.5 |
| 20260509184015 | 65 | 58 | 0.0 | 2.0 | 0.00 | 0.00 | 0.00 | 1 | 1020.5 |
| 20260509183513 | 64 | 68 | 0.0 | 2.0 | 0.00 | 0.00 | 0.00 | 1 | 1020.5 |
| 20260509183011 | 64 | 249 | 0.0 | 2.0 | 0.00 | 0.00 | 0.00 | 1 | 1020.5 |
| 20260509182552 | 64 | 219 | 0.0 | 3.0 | 0.00 | 0.00 | 0.00 | 1 | 1020.5 |
| 20260509182050 | 63 | 233 | 0.0 | 3.0 | 0.00 | 0.00 | 0.00 | 1 | 1020.6 |
| 20260509181549 | 64 | 76 | 0.0 | 1.0 | 0.00 | 0.00 | 0.00 | 1 | 1020.7 |
| 20260509181047 | 64 | 225 | 0.0 | 2.0 | 0.00 | 0.00 | 0.00 | 1 | 1020.8 |
| 20260509180546 | 64 | 243 | 0.0 | 4.0 | 0.00 | 0.00 | 0.00 | 1 | 1020.7 |
| 20260509180044 | 64 | 228 | 2.0 | 4.0 | 0.00 | 0.00 | 0.00 | 1 | 1020.7 |
| 20260509175527 | 63 | 235 | 0.0 | 4.0 | 0.00 | 0.00 | 0.00 | 1 | 1020.6 |
| 20260509175026 | 63 | 235 | 1.0 | 4.0 | 0.00 | 0.00 | 0.00 | 1 | 1020.7 |
| 20260509174523 | 64 | 232 | 2.0 | 4.0 | 0.00 | 0.00 | 0.00 | 1 | 1020.8 |
| 20260509174023 | 64 | 235 | 0.0 | 4.0 | 0.00 | 0.00 | 0.00 | 1 | 1020.8 |
| 20260509173520 | 64 | 213 | 0.0 | 2.0 | 0.00 | 0.00 | 0.00 | 1 | 1020.8 |
| 20260509173020 | 64 | 146 | 0.0 | 1.0 | 0.00 | 0.00 | 0.00 | 1 | 1020.8 |
| 20260509172559 | 63 | 278 | 0.0 | 2.0 | 0.00 | 0.00 | 0.00 | 1 | 1020.7 |
| 20260509172058 | 63 | 64 | 0.0 | 2.0 | 0.00 | 0.00 | 0.00 | 1 | 1020.8 |
| 20260509171622 | 61 | 85 | 0.0 | 1.0 | 0.00 | 0.00 | 0.00 | 1 | 1020.9 |
| 20260509171054 | 61 | 239 | 0.0 | 2.0 | 0.00 | 0.00 | 0.00 | 1 | 1020.9 |
| 20260509170553 | 60 | 245 | 0.0 | 3.0 | 0.00 | 0.00 | 0.00 | 1 | 1020.8 |
| 20260509170052 | 60 | 302 | 0.0 | 4.0 | 0.00 | 0.00 | 0.00 | 1 | 1020.8 |
| 20260509165532 | 60 | 49 | 0.0 | 1.0 | 0.00 | 0.00 | 0.00 | 1 | 1020.9 |
| 20260509165032 | 59 | 27 | 0.0 | 3.0 | 0.00 | 0.00 | 0.00 | 1 | 1020.9 |
| 20260509164530 | 60 | 27 | 0.0 | 3.0 | 0.00 | 0.00 | 0.00 | 1 | 1020.9 |
| 20260509164030 | 59 | 143 | 0.0 | 3.0 | 0.00 | 0.00 | 0.00 | 1 | 1020.8 |
| 20260509163528 | 59 | 26 | 0.0 | 3.0 | 0.00 | 0.00 | 0.00 | 1 | 1020.9 |
| 20260509163025 | 58 | 34 | 0.0 | 2.0 | 0.00 | 0.00 | 0.00 | 1 | 1020.9 |
| 20260509162508 | 57 | 25 | 0.0 | 2.0 | 0.00 | 0.00 | 0.00 | 1 | 1021.0 |
| 20260509162006 | 57 | 240 | 0.0 | 2.0 | 0.00 | 0.00 | 0.00 | 1 | 1021.0 |
| 20260509161506 | 57 | 275 | 0.0 | 2.0 | 0.00 | 0.00 | 0.00 | 1 | 1021.1 |
| 20260509161003 | 56 | 263 | 0.0 | 2.0 | 0.00 | 0.00 | 0.00 | 1 | 1021.1 |
| 20260509160503 | 56 | 29 | 0.0 | 2.0 | 0.00 | 0.00 | 0.00 | 1 | 1021.0 |
| 20260509160001 | 56 | 36 | 0.0 | 3.0 | 0.00 | 0.00 | 0.00 | 1 | 1021.1 |
| 20260509155541 | 56 | 61 | 0.0 | 2.0 | 0.00 | 0.00 | 0.00 | 1 | 1021.0 |
| 20260509155041 | 56 | 74 | 0.0 | 1.0 | 0.00 | 0.00 | 0.00 | 1 | 1021.1 |
| 20260509154543 | 55 | 322 | 0.0 | 1.0 | 0.00 | 0.00 | 0.00 | 1 | 1021.1 |
| 20260509154037 | 55 | 315 | 0.0 | 1.0 | 0.00 | 0.00 | 0.00 | 1 | 1021.2 |
| 20260509153536 | 55 | 315 | 0.0 | 1.0 | 0.00 | 0.00 | 0.00 | 1 | 1021.2 |
| 20260509153038 | 55 | 48 | 0.0 | 1.0 | 0.00 | 0.00 | 0.00 | 1 | 1021.3 |
| 20260509152516 | 55 | 358 | 0.0 | 0.0 | 0.00 | 0.00 | 0.00 | 1 | 1021.2 |
| 20260509152015 | 55 | 360 | 0.0 | 0.0 | 0.00 | 0.00 | 0.00 | 1 | 1021.2 |
| 20260509151513 | 55 | 49 | 0.0 | 0.0 | 0.00 | 0.00 | 0.00 | 1 | 1021.2 |
| 20260509151012 | 55 | 322 | 0.0 | 0.0 | 0.00 | 0.00 | 0.00 | 1 | 1021.3 |
| 20260509150510 | 55 | 8 | 0.0 | 0.0 | 0.00 | 0.00 | 0.00 | 1 | 1021.3 |
| 20260509150008 | 54 | 54 | 0.0 | 0.0 | 0.00 | 0.00 | 0.00 | 1 | 1021.3 |
| 20260509145608 | 54 | 54 | 0.0 | 0.0 | 0.00 | 0.00 | 0.00 | 1 | 1021.4 |
| 20260509145051 | 54 | 53 | 0.0 | 0.0 | 0.00 | 0.00 | 0.00 | 1 | 1021.3 |
| 20260509144644 | 54 | 54 | 0.0 | 0.0 | 0.00 | 0.00 | 0.00 | 1 | 1021.3 |
| 20260509144049 | 54 | 53 | 0.0 | 0.0 | 0.00 | 0.00 | 0.00 | 1 | 1021.4 |
| 20260509143545 | 54 | 54 | 0.0 | 0.0 | 0.00 | 0.00 | 0.00 | 1 | 1021.5 |
| 20260509143048 | 54 | 52 | 0.0 | 0.0 | 0.00 | 0.00 | 0.00 | 1 | 1021.3 |
| 20260509142545 | 53 | 53 | 0.0 | 0.0 | 0.00 | 0.00 | 0.00 | 1 | 1021.4 |
| 20260509142027 | 53 | 54 | 0.0 | 0.0 | 0.00 | 0.00 | 0.00 | 1 | 1021.4 |
| 20260509141534 | 53 | 56 | 0.0 | 0.0 | 0.00 | 0.00 | 0.00 | 1 | 1021.4 |
| 20260509141026 | 53 | 56 | 0.0 | 0.0 | 0.00 | 0.00 | 0.00 | 1 | 1021.4 |
| 20260509140523 | 53 | 56 | 0.0 | 0.0 | 0.00 | 0.00 | 0.00 | 1 | 1021.3 |
| 20260509140021 | 53 | 56 | 0.0 | 0.0 | 0.00 | 0.00 | 0.00 | 1 | 1021.4 |
| 20260509135520 | 53 | 56 | 0.0 | 0.0 | 0.00 | 0.00 | 0.00 | 1 | 1021.4 |
| 20260509135019 | 53 | 56 | 0.0 | 0.0 | 0.00 | 0.00 | 0.00 | 1 | 1021.3 |
| 20260509134518 | 0 | 0.0 | 0.0 | 0.00 | 0.00 | 0.00 | 1021.2 | ||
| 20260509134019 | 0 | 0.0 | 0.0 | 0.00 | 0.00 | 0.00 | 1021.3 | ||
| 20260509133514 | 0 | 0.0 | 0.0 | 0.00 | 0.00 | 0.00 | 1021.4 | ||
| 20260509133013 | 0 | 0.0 | 0.0 | 0.00 | 0.00 | 0.00 | 1021.3 | ||
| 20260509132512 | 0 | 0.0 | 0.0 | 0.00 | 0.00 | 0.00 | 1021.3 | ||
| 20260509132010 | 0 | 0.0 | 0.0 | 0.00 | 0.00 | 0.00 | 1021.4 | ||
| 20260509131512 | 0 | 0.0 | 0.0 | 0.00 | 0.00 | 0.00 | 1021.4 | ||
| 20260509131007 | 0 | 0.0 | 0.0 | 0.00 | 0.00 | 0.00 | 1021.4 | ||
| 20260509130506 | 0 | 0.0 | 0.0 | 0.00 | 0.00 | 0.00 | 1021.3 | ||
| 20260509130005 | 0 | 0.0 | 0.0 | 0.00 | 0.00 | 0.00 | 1021.3 | ||
| 20260509125505 | 0 | 0.0 | 0.0 | 0.00 | 0.00 | 0.00 | 1021.5 | ||
| 20260509125001 | 0 | 0.0 | 0.0 | 0.00 | 0.00 | 0.00 | 1021.6 | ||
| 20260509124615 | 0 | 0.0 | 0.0 | 0.00 | 0.00 | 0.00 | 1021.6 | ||
| 20260509124058 | 0 | 0.0 | 0.0 | 0.00 | 0.00 | 0.00 | 1021.6 | ||
| 20260509123557 | 0 | 0.0 | 0.0 | 0.00 | 0.00 | 0.00 | 1021.5 | ||
| 20260509123100 | 0 | 0.0 | 0.0 | 0.00 | 0.00 | 0.00 | 1021.5 | ||
| 20260509122554 | 0 | 0.0 | 0.0 | 0.00 | 0.00 | 0.00 | 1021.5 | ||
| 20260509122035 | 0 | 0.0 | 0.0 | 0.00 | 0.00 | 0.00 | 1021.5 | ||
| 20260509121536 | 0 | 0.0 | 0.0 | 0.00 | 0.00 | 0.00 | 1021.7 | ||
| 20260509121033 | 0 | 0.0 | 0.0 | 0.00 | 0.00 | 0.00 | 1021.7 | ||
| 20260509120531 | 0 | 0.0 | 0.0 | 0.00 | 0.00 | 0.00 | 1021.7 | ||
| 20260509120030 | 0 | 0.0 | 0.0 | 0.00 | 0.00 | 0.00 | 1021.8 | ||
| 20260509115528 | 0 | 0.0 | 0.0 | 0.00 | 0.00 | 0.00 | 1021.8 | ||
| 20260509115009 | 0 | 0.0 | 0.0 | 0.00 | 0.00 | 0.00 | 1021.7 | ||
| 20260509114508 | 0 | 0.0 | 0.0 | 0.00 | 0.00 | 0.00 | 1021.8 | ||
| 20260509114007 | 0 | 0.0 | 0.0 | 0.00 | 0.00 | 0.00 | 1021.8 | ||
| 20260509113509 | 0 | 0.0 | 0.0 | 0.00 | 0.00 | 0.00 | 1021.8 | ||
| 20260509113004 | 0 | 0.0 | 0.0 | 0.00 | 0.00 | 0.00 | 1021.8 | ||
| 20260509112503 | 0 | 0.0 | 0.0 | 0.00 | 0.00 | 0.00 | 1021.8 | ||
| 20260509112044 | 0 | 0.0 | 0.0 | 0.00 | 0.00 | 0.00 | 1021.9 | ||
| 20260509111542 | 0 | 0.0 | 0.0 | 0.00 | 0.00 | 0.00 | 1021.9 | ||
| 20260509111041 | 0 | 0.0 | 0.0 | 0.00 | 0.00 | 0.00 | 1021.9 | ||
| 20260509110540 | 0 | 0.0 | 0.0 | 0.00 | 0.00 | 0.00 | 1022.1 | ||
| 20260509110038 | 0 | 0.0 | 0.0 | 0.00 | 0.00 | 0.00 | 1022.1 | ||
| 20260509105537 | 0 | 0.0 | 0.0 | 0.00 | 0.00 | 0.00 | 1022.0 | ||
| 20260509105017 | 0 | 0.0 | 0.0 | 0.00 | 0.00 | 0.00 | 1022.0 | ||
| 20260509104529 | 0 | 0.0 | 0.0 | 0.00 | 0.00 | 0.00 | 1022.0 | ||
| 20260509104014 | 0 | 0.0 | 0.0 | 0.00 | 0.00 | 0.00 | 1022.0 | ||
| 20260509103513 | 0 | 0.0 | 0.0 | 0.00 | 0.00 | 0.00 | 1021.9 | ||
| 20260509103012 | 0 | 0.0 | 0.0 | 0.00 | 0.00 | 0.00 | 1022.1 | ||
| 20260509102510 | 0 | 0.0 | 0.0 | 0.00 | 0.00 | 0.00 | 1022.1 | ||
| 20260509102052 | 0 | 0.0 | 0.0 | 0.00 | 0.00 | 0.00 | 1022.1 | ||
| 20260509101552 | 0 | 0.0 | 0.0 | 0.00 | 0.00 | 0.00 | 1022.1 | ||
| 20260509101049 | 0 | 0.0 | 0.0 | 0.00 | 0.00 | 0.00 | 1022.2 | ||
| 20260509100548 | 0 | 0.0 | 0.0 | 0.00 | 0.00 | 0.00 | 1022.2 | ||
| 20260509100053 | 0 | 0.0 | 0.0 | 0.00 | 0.00 | 0.00 | 1022.2 | ||
| 20260509095545 | 0 | 0.0 | 0.0 | 0.00 | 0.00 | 0.00 | 1022.2 | ||
| 20260509095026 | 0 | 0.0 | 0.0 | 0.00 | 0.00 | 0.00 | 1022.2 | ||
| 20260509094525 | 0 | 0.0 | 0.0 | 0.00 | 0.00 | 0.00 | 1022.1 | ||
| 20260509094023 | 0 | 0.0 | 0.0 | 0.00 | 0.00 | 0.00 | 1022.2 | ||
| 20260509093521 | 0 | 0.0 | 0.0 | 0.00 | 0.00 | 0.00 | 1022.2 | ||
| 20260509093021 | 0 | 0.0 | 0.0 | 0.00 | 0.00 | 0.00 | 1022.2 | ||
| 20260509092518 | 0 | 0.0 | 0.0 | 0.00 | 0.00 | 0.00 | 1022.3 | ||
| 20260509092120 | 0 | 0.0 | 0.0 | 0.00 | 0.00 | 0.00 | 1022.3 | ||
| 20260509091559 | 0 | 0.0 | 0.0 | 0.00 | 0.00 | 0.00 | 1022.2 | ||
| 20260509091100 | 0 | 0.0 | 0.0 | 0.00 | 0.00 | 0.00 | 1022.2 | ||
| 20260509090556 | 0 | 0.0 | 0.0 | 0.00 | 0.00 | 0.00 | 1022.2 | ||
| 20260509085552 | 0 | 0.0 | 0.0 | 0.00 | 0.00 | 0.00 | 1022.2 | ||
| 20260509085051 | 0 | 0.0 | 0.0 | 0.00 | 0.00 | 0.00 | 1022.2 | ||
| 20260509084534 | 0 | 0.0 | 0.0 | 0.00 | 0.00 | 0.00 | 1022.3 | ||
| 20260509084031 | 0 | 0.0 | 0.0 | 0.00 | 0.00 | 0.00 | 1022.4 | ||
| 20260509083528 | 0 | 0.0 | 0.0 | 0.00 | 0.00 | 0.00 | 1022.4 | ||
| 20260509083027 | 0 | 0.0 | 0.0 | 0.00 | 0.00 | 0.00 | 1022.4 | ||
| 20260509082526 | 0 | 0.0 | 0.0 | 0.00 | 0.00 | 0.00 | 1022.5 | ||
| 20260509082025 | 0 | 0.0 | 0.0 | 0.00 | 0.00 | 0.00 | 1022.5 | ||
| 20260509081510 | 0 | 0.0 | 0.0 | 0.00 | 0.00 | 0.00 | 1022.4 | ||
| 20260509081005 | 0 | 0.0 | 0.0 | 0.00 | 0.00 | 0.00 | 1022.4 | ||
| 20260509080503 | 0 | 0.0 | 0.0 | 0.00 | 0.00 | 0.00 | 1022.4 | ||
| 20260509080002 | 0 | 0.0 | 0.0 | 0.00 | 0.00 | 0.00 | 1022.4 | ||
| 20260509075502 | 0 | 0.0 | 0.0 | 0.00 | 0.00 | 0.00 | 1022.4 | ||
| 20260509075100 | 0 | 0.0 | 0.0 | 0.00 | 0.00 | 0.00 | 1022.4 | ||
| 20260509074544 | 0 | 0.0 | 0.0 | 0.00 | 0.00 | 0.00 | 1022.4 | ||
| 20260509074038 | 0 | 0.0 | 0.0 | 0.00 | 0.00 | 0.00 | 1022.3 | ||
| 20260509073538 | 0 | 0.0 | 0.0 | 0.00 | 0.00 | 0.00 | 1022.4 | ||
| 20260509073039 | 0 | 0.0 | 0.0 | 0.00 | 0.00 | 0.00 | 1022.4 | ||
| 20260509072539 | 0 | 0.0 | 0.0 | 0.00 | 0.00 | 0.00 | 1022.5 | ||
| 20260509072035 | 0 | 0.0 | 0.0 | 0.00 | 0.00 | 0.00 | 1022.5 | ||
| 20260509071518 | 0 | 0.0 | 0.0 | 0.00 | 0.00 | 0.00 | 1022.5 | ||
| 20260509071013 | 0 | 0.0 | 0.0 | 0.00 | 0.00 | 0.00 | 1022.5 | ||
| 20260509070513 | 0 | 0.0 | 0.0 | 0.00 | 0.00 | 0.00 | 1022.5 | ||
| 20260509070010 | 0 | 0.0 | 0.0 | 0.00 | 0.00 | 0.00 | 1022.5 | ||
| 20260509065512 | 0 | 0.0 | 0.0 | 0.00 | 0.00 | 0.00 | 1022.5 | ||
| 20260509065008 | 0 | 0.0 | 0.0 | 0.00 | 0.00 | 0.00 | 1022.5 | ||
| 20260509064549 | 53 | 221 | 0.0 | 1.0 | 0.00 | 0.00 | 0.00 | 1 | 1022.5 |
| 20260509064047 | 53 | 221 | 0.0 | 1.0 | 0.00 | 0.00 | 0.00 | 1 | 1022.5 |
| 20260509063545 | 54 | 221 | 0.0 | 1.0 | 0.00 | 0.00 | 0.00 | 1 | 1022.4 |
| 20260509063046 | 54 | 212 | 0.0 | 1.0 | 0.00 | 0.00 | 0.00 | 1 | 1022.4 |
| 20260509062546 | 54 | 212 | 0.0 | 0.0 | 0.00 | 0.00 | 0.00 | 1 | 1022.4 |
| 20260509062046 | 54 | 218 | 0.0 | 1.0 | 0.00 | 0.00 | 0.00 | 1 | 1022.5 |
| 20260509061528 | 54 | 218 | 0.0 | 1.0 | 0.00 | 0.00 | 0.00 | 1 | 1022.5 |
| 20260509061028 | 54 | 238 | 0.0 | 1.0 | 0.00 | 0.00 | 0.00 | 1 | 1022.5 |
| 20260509060528 | 54 | 38 | 0.0 | 0.0 | 0.00 | 0.00 | 0.00 | 1 | 1022.4 |
| 20260509060029 | 54 | 39 | 0.0 | 1.0 | 0.00 | 0.00 | 0.00 | 1 | 1022.4 |
| 20260509055529 | 54 | 149 | 0.0 | 1.0 | 0.00 | 0.00 | 0.00 | 1 | 1022.4 |
| 20260509055027 | 54 | 209 | 0.0 | 1.0 | 0.00 | 0.00 | 0.00 | 1 | 1022.4 |
| 20260509054518 | 54 | 68 | 0.0 | 0.0 | 0.00 | 0.00 | 0.00 | 1 | 1022.4 |
| 20260509054010 | 54 | 49 | 0.0 | 1.0 | 0.00 | 0.00 | 0.00 | 1 | 1022.4 |
| 20260509053511 | 54 | 242 | 0.0 | 1.0 | 0.00 | 0.00 | 0.00 | 1 | 1022.4 |
| 20260509053010 | 54 | 221 | 0.0 | 1.0 | 0.00 | 0.00 | 0.00 | 1 | 1022.4 |
| 20260509052507 | 54 | 222 | 0.0 | 1.0 | 0.00 | 0.00 | 0.00 | 1 | 1022.4 |
| 20260509052008 | 54 | 304 | 0.0 | 1.0 | 0.00 | 0.00 | 0.00 | 1 | 1022.4 |
| 20260509051549 | 54 | 101 | 0.0 | 0.0 | 0.00 | 0.00 | 0.00 | 1 | 1022.3 |
| 20260509051045 | 54 | 88 | 0.0 | 1.0 | 0.00 | 0.00 | 0.00 | 1 | 1022.3 |
| 20260509050546 | 54 | 218 | 0.0 | 1.0 | 0.00 | 0.00 | 0.00 | 1 | 1022.3 |
| 20260509050051 | 54 | 215 | 0.0 | 1.0 | 0.00 | 0.00 | 0.00 | 1 | 1022.3 |
| 20260509045540 | 54 | 204 | 0.0 | 1.0 | 0.00 | 0.00 | 0.00 | 1 | 1022.3 |
| 20260509045039 | 54 | 222 | 0.0 | 1.0 | 0.00 | 0.00 | 0.00 | 1 | 1022.3 |
| 20260509044527 | 54 | 218 | 0.0 | 1.0 | 0.00 | 0.00 | 0.00 | 1 | 1022.3 |
| 20260509044019 | 54 | 81 | 0.0 | 1.0 | 0.00 | 0.00 | 0.00 | 1 | 1022.3 |
| 20260509043519 | 54 | 5 | 0.0 | 1.0 | 0.00 | 0.00 | 0.00 | 1 | 1022.3 |
| 20260509043016 | 54 | 221 | 0.0 | 1.0 | 0.00 | 0.00 | 0.00 | 1 | 1022.2 |
| 20260509042518 | 54 | 72 | 0.0 | 1.0 | 0.00 | 0.00 | 0.00 | 1 | 1022.2 |
| 20260509042013 | 54 | 218 | 0.0 | 1.0 | 0.00 | 0.00 | 0.00 | 1 | 1022.2 |